Flag for U.S.A. Weather past 2 weeks in Orange, California, U.S.A.

50 °F

Scattered clouds.

Feels Like: 50 °F
Forecast: 43 / 64 °F
Wind: No wind

Location: John Wayne Airport-Orange County Airport

Current Time: Nov 28, 2015 at 8:39:54 AM

Latest Report: Nov 28, 2015 at 7:53 AM

Visibility: 10 mi

Pressure: 30.08 "Hg

Humidity: 66%

Dew point: 39 °F

Location of OrangeLocation

Historic Weather in Orange — Graph


Orange temperature yesterday

Maximum temperature yesterday: 62 °F (at 1:53 PM)
Minimum temperature yesterday: 49 °F (at 2:53 AM)
Average temperature yesterday: 54 °F

Past Weeks' High & Low Weather Summary

High87 °F (Nov 21, 1:53 PM)90% (Nov 25, 1:53 AM)30.18 "Hg (Nov 25, 1:53 AM)
Low43 °F (Nov 17, 4:53 AM)11% (Nov 17, 11:53 AM)29.85 "Hg (Nov 25, 2:53 AM)
Average60 °F51%29.96 "Hg
* Reported Nov 13 6:53 AM — Nov 28 6:53 AM, Orange, Weather by CustomWeather, © 2015

Note: Actual official high and low records may vary slightly from our data, if they occured in-between our weather recording intervals... More about our weather records


Orange weather history for previous 24 hours

Time TempWeatherWind HumidityBarometerVisibility
6:53 AM
Sat, Nov 28
48 °FScattered clouds.No wind71%30.07 "Hg10 mi
5:53 AM49 °FPassing clouds.No wind69%30.06 "Hg10 mi
4:53 AM49 °FOvercast.No wind69%30.04 "Hg10 mi
3:53 AM48 °FOvercast.No wind71%30.05 "Hg10 mi
2:53 AM47 °FOvercast.3 mph74%30.05 "Hg10 mi
1:53 AM47 °FPassing clouds.5 mph71%30.05 "Hg10 mi
12:53 AM49 °FClear.No wind69%30.05 "Hg10 mi
11:53 PM
Fri, Nov 27
50 °FClear.No wind66%30.04 "Hg10 mi
10:53 PM51 °FPassing clouds.3 mph66%30.05 "Hg10 mi
9:53 PM52 °FClear.6 mph64%30.05 "Hg10 mi
8:53 PM51 °FClear.No wind69%30.04 "Hg10 mi
7:53 PM53 °FClear.No wind61%30.04 "Hg10 mi
6:53 PM55 °FPassing clouds.5 mph57%30.03 "Hg10 mi
5:53 PM56 °FPassing clouds.No wind60%30.02 "Hg10 mi
4:53 PM57 °FPassing clouds.3 mph55%30.00 "Hg10 mi
3:53 PM59 °FScattered clouds.5 mph51%29.98 "Hg10 mi
2:53 PM59 °FScattered clouds.9 mph54%29.98 "Hg10 mi
1:53 PM62 °FBroken clouds.3 mph43%29.97 "Hg10 mi
12:53 PM60 °FBroken clouds.5 mph42%29.99 "Hg10 mi
11:53 AM60 °FBroken clouds.5 mph42%29.99 "Hg10 mi
10:53 AM59 °FBroken clouds.No wind48%30.02 "Hg10 mi
9:53 AM57 °FPartly sunny.3 mph58%30.03 "Hg10 mi
8:53 AM54 °FPartly sunny.No wind69%30.02 "Hg10 mi
Weather by CustomWeather, © 2015

See weather overviewHow to use our weather pages